Location: Napier
(39.4830°S, 176.9170°E)
Time: 23:18:08
(UTC+13:00)

Cosmos 1356 - Pass Details

Date: 24 January 2019
Orbit: 448 x 452 km, 81.1° (Epoch: 20 February)

Event Time Altitude Azimuth Distance (km) Brightness Sun altitude
Exits shadow 22:12:20 36° 69° (ENE) 749 4.0 -16.1°
Maximum altitude 22:12:43 37° 86° (E) 730 4.0 -16.2°
Drops below altitude 10° 22:15:59 10° 154° (SSE) 1,612 6.4 -16.7°
Sets 22:18:11 0° 162° (SSE) 2,496 7.5 -17.0°
